• Currently

    Reported at Minneapolis, Minneapolis-St. Paul International Airport, MN
    9:53 AM CST MON MAY 29 2017
  • 59°F15°C
  • Overcast
    Overcast
  • Feels Like:59°F15°CDew Point:48°F9°CHumidity:68% Winds:NW 15 mph G 2124 kph G 34
    Pressure:29.8 in1009 hPaVisibility:10.00 miles16090.00 meters
Time Weather Temp Dew Point
Humidity Winds Visibility Pressure Precipitation
1 hr 24 hr
Thursday, May 18
23:53 23:53 Cloudy With Light Rain Cloudy With Light Rain 54°F12°C 52°F11°C 93% N 8 mphN 13 kph 6.0 miles9.7 km 29.44 in997 hPa 0.09 in58.06 mm --
23:31 23:31 Cloudy With Light Rain Cloudy With Light Rain 55°F13°C 52°F11°C 90% NNE 12 mphNNE 19 kph 7.0 miles11.3 km 29.41 in996 hPa 0.05 in32.26 mm --
23:17 23:17 Cloudy With Light Rain Cloudy With Light Rain 55°F13°C 52°F11°C 90% ENE 14 mphENE 22 kph 8.0 miles12.9 km 29.41 in996 hPa 0.03 in19.35 mm --
22:53 22:53 Cloudy With Light Rain Cloudy With Light Rain 56°F13°C 53°F12°C 90% NE 14 mphNE 22 kph 8.0 miles12.9 km 29.41 in996 hPa 0.14 in90.32 mm --
22:02 22:02 Cloudy With Light Rain Cloudy With Light Rain 58°F14°C 55°F13°C 90% NE 14 mphNE 22 kph 6.0 miles9.7 km 29.41 in996 hPa 0.01 in6.45 mm --
21:53 21:53 Cloudy With Rain Cloudy With Rain 58°F14°C 55°F13°C 90% N 12 mphN 19 kph 6.0 miles9.7 km 29.41 in996 hPa 0.14 in90.32 mm --
20:53 20:53 Cloudy With Light Rain Cloudy With Light Rain 59°F15°C 56°F13°C 90% NNE 15 mphNNE 24 kph 5.0 miles8.0 km 29.38 in995 hPa 0.07 in45.16 mm --
20:41 20:41 Cloudy With Nearby Thunderstorms Cloudy With Nearby Thunderstorms 60°F16°C 57°F14°C 90% ENE 13 mphENE 20 kph 6.0 miles9.7 km 29.38 in995 hPa 0.06 in38.71 mm --
19:53 19:53 Cloudy With Nearby Thunderstorms Cloudy With Nearby Thunderstorms 59°F15°C 56°F13°C 90% NNE 12 mphNNE 19 kph 8.0 miles12.9 km 29.38 in995 hPa 0.79 in509.68 mm --
19:46 19:46 Cloudy With Light Thunderstorms Cloudy With Light Thunderstorms 58°F14°C 56°F13°C 93% N 9 mphN 15 kph 7.0 miles11.3 km 29.38 in995 hPa 0.78 in503.22 mm --
19:36 19:36 Cloudy With Heavy Thunderstorms Cloudy With Heavy Thunderstorms 58°F14°C 56°F13°C 93% NNE 15 mphNNE 24 kph 3.0 miles4.8 km 29.38 in995 hPa 0.75 in483.87 mm --
19:30 19:30 Cloudy With Heavy Thunderstorms Cloudy With Heavy Thunderstorms 59°F15°C 56°F13°C 90% NE 16 mphNE 26 kph 1.0 miles1.6 km 29.38 in995 hPa 0.57 in367.74 mm --
19:26 19:26 Cloudy With Heavy Thunderstorms Cloudy With Heavy Thunderstorms 59°F15°C 56°F13°C 90% NNE 14 mphNNE 22 kph 0.5 miles0.8 km 29.41 in996 hPa 0.23 in148.39 mm --
19:21 19:21 Cloudy With Light Thunderstorms Cloudy With Light Thunderstorms 61°F16°C 55°F13°C 81% N 6 mphN 9 kph 0.5 miles0.8 km 29.44 in997 hPa 0.00 in0.03 mm --
19:19 19:19 Cloudy With Thunderstorms Cloudy With Thunderstorms 62°F17°C 55°F13°C 78% SW 13 mphSW 20 kph 1.5 miles2.4 km 29.44 in997 hPa 0.00 in0.00 mm --
19:15 19:15 Cloudy With Thunderstorms Cloudy With Thunderstorms 63°F17°C 55°F13°C 76% W 18 mphW 30 kph 10.0 miles16.1 km 29.41 in996 hPa 0.00 in0.00 mm --
18:53 18:53 Cloudy With Nearby Thunderstorms Cloudy With Nearby Thunderstorms 67°F19°C 61°F16°C 81% NE 14 mphNE 22 kph 10.0 miles16.1 km 29.38 in995 hPa 0.00 in0.00 mm --
17:53 17:53 Cloudy Cloudy 68°F20°C 62°F17°C 81% ENE 9 mphENE 15 kph 10.0 miles16.1 km 29.38 in995 hPa 0.00 in0.00 mm --
17:17 17:17 Cloudy Cloudy 68°F20°C 62°F17°C 81% ENE 12 mphENE 19 kph 10.0 miles16.1 km 29.38 in995 hPa 0.00 in0.00 mm --
16:57 16:57 Cloudy With Nearby Thunderstorms Cloudy With Nearby Thunderstorms 68°F20°C 62°F17°C 81% NE 8 mphNE 13 kph 10.0 miles16.1 km 29.38 in995 hPa 0.00 in0.00 mm --
16:53 16:53 Cloudy Cloudy 68°F20°C 62°F17°C 81% NE 10 mphNE 17 kph 10.0 miles16.1 km 29.38 in995 hPa 0.01 in6.45 mm --
16:10 16:10 Cloudy Cloudy 68°F20°C 62°F17°C 81% E 10 mphE 17 kph 10.0 miles16.1 km 29.41 in996 hPa 0.01 in6.45 mm --
15:59 15:59 Cloudy With Nearby Thunderstorms Cloudy With Nearby Thunderstorms 68°F20°C 61°F16°C 78% ESE 15 mphESE 24 kph 10.0 miles16.1 km 29.41 in996 hPa 0.01 in6.45 mm --
15:53 15:53 Cloudy With Nearby Thunderstorms Cloudy With Nearby Thunderstorms 68°F20°C 61°F16°C 78% ESE 14 mphESE 22 kph 10.0 miles16.1 km 29.41 in996 hPa 0.04 in25.81 mm --
15:23 15:23 Cloudy With Light Rain Cloudy With Light Rain 70°F21°C 60°F16°C 71% NE 13 mphNE 20 kph 10.0 miles16.1 km 29.41 in996 hPa 0.00 in0.03 mm --
14:53 14:53 Cloudy Cloudy 71°F22°C 60°F16°C 68% ENE 10 mphENE 17 kph 10.0 miles16.1 km 29.44 in997 hPa 0.00 in0.00 mm --
14:27 14:27 Cloudy Cloudy 70°F21°C 59°F15°C 68% NE 9 mphNE 15 kph 10.0 miles16.1 km 29.47 in998 hPa 0.00 in0.00 mm --
13:53 13:53 Cloudy Cloudy 69°F21°C 59°F15°C 70% ENE 7 mphENE 11 kph 10.0 miles16.1 km 29.47 in998 hPa 0.00 in0.00 mm --
13:19 13:19 Cloudy Cloudy 68°F20°C 60°F16°C 76% E 8 mphE 13 kph 10.0 miles16.1 km 29.47 in998 hPa 0.00 in0.00 mm --
12:53 12:53 Cloudy Cloudy 68°F20°C 60°F16°C 76% ENE 7 mphENE 11 kph 10.0 miles16.1 km 29.5 in999 hPa 0.00 in0.03 mm --
11:53 11:53 Cloudy Cloudy 67°F19°C 59°F15°C 76% E 3 mphE 6 kph 10.0 miles16.1 km 29.5 in999 hPa 0.00 in0.00 mm --
11:31 11:31 Cloudy Cloudy 67°F19°C 58°F14°C 73% CalmCalm 10.0 miles16.1 km 29.53 in1000 hPa 0.00 in0.00 mm --
10:53 10:53 Cloudy Cloudy 66°F19°C 59°F15°C 78% SSW 7 mphSSW 11 kph 10.0 miles16.1 km 29.53 in1000 hPa 0.00 in0.00 mm --
10:51 10:51 Cloudy Cloudy 66°F19°C 61°F16°C 83% SW 6 mphSW 9 kph 10.0 miles16.1 km 29.53 in1000 hPa 0.00 in0.00 mm --
10:30 10:30 Cloudy Cloudy 66°F19°C 59°F15°C 78% S 8 mphS 13 kph 10.0 miles16.1 km 29.53 in1000 hPa 0.00 in0.00 mm --
09:53 09:53 Cloudy Cloudy 65°F18°C 60°F16°C 84% S 6 mphS 9 kph 10.0 miles16.1 km 29.53 in1000 hPa 0.02 in12.90 mm --
08:53 08:53 Cloudy With Light Rain Cloudy With Light Rain 63°F17°C 59°F15°C 87% S 12 mphS 19 kph 9.0 miles14.5 km 29.53 in1000 hPa 0.00 in0.03 mm --
08:14 08:14 Cloudy With Light Rain Cloudy With Light Rain 63°F17°C 59°F15°C 87% S 7 mphS 11 kph 10.0 miles16.1 km 29.53 in1000 hPa 0.00 in0.03 mm --
07:53 07:53 Cloudy Cloudy 63°F17°C 59°F15°C 87% SE 7 mphSE 11 kph 10.0 miles16.1 km 29.53 in1000 hPa 0.00 in0.00 mm --
07:28 07:28 Cloudy Cloudy 63°F17°C 59°F15°C 87% SE 6 mphSE 9 kph 10.0 miles16.1 km 29.53 in1000 hPa 0.00 in0.00 mm --
07:00 07:00 Cloudy Cloudy 63°F17°C 59°F15°C 87% SE 8 mphSE 13 kph 10.0 miles16.1 km 29.5 in999 hPa 0.00 in0.00 mm --
06:53 06:53 Cloudy Cloudy 63°F17°C 60°F16°C 90% N 3 mphN 6 kph 10.0 miles16.1 km 29.5 in999 hPa 0.00 in0.03 mm --
06:44 06:44 Cloudy Cloudy 64°F18°C 60°F16°C 87% S 8 mphS 13 kph 10.0 miles16.1 km 29.53 in1000 hPa 0.00 in0.03 mm --
06:21 06:21 Cloudy Cloudy 63°F17°C 60°F16°C 90% SSE 8 mphSSE 13 kph 7.0 miles11.3 km 29.5 in999 hPa 0.00 in0.03 mm --
06:12 06:12 Cloudy With Light Rain Cloudy With Light Rain 63°F17°C 60°F16°C 90% SE 6 mphSE 9 kph 7.0 miles11.3 km 29.5 in999 hPa 0.00 in0.03 mm --
05:53 05:53 Cloudy With Light Rain Cloudy With Light Rain 63°F17°C 60°F16°C 90% SE 3 mphSE 6 kph 10.0 miles16.1 km 29.47 in998 hPa 0.02 in12.90 mm --
04:53 04:53 Cloudy With Light Rain Cloudy With Light Rain 63°F17°C 60°F16°C 90% SSW 3 mphSSW 6 kph 8.0 miles12.9 km 29.5 in999 hPa 0.04 in25.81 mm --
03:53 03:53 Cloudy With Rain Cloudy With Rain 63°F17°C 59°F15°C 87% NW 6 mphNW 9 kph 5.0 miles8.0 km 29.5 in999 hPa 0.08 in51.61 mm --
02:53 02:53 Cloudy With Rain Cloudy With Rain 64°F18°C 61°F16°C 90% N 9 mphN 15 kph 4.0 miles6.4 km 29.53 in1000 hPa 0.11 in70.97 mm --
02:28 02:28 Cloudy With Light Rain Cloudy With Light Rain 64°F18°C 61°F16°C 90% NW 7 mphNW 11 kph 4.0 miles6.4 km 29.53 in1000 hPa 0.04 in25.81 mm --
02:07 02:07 Cloudy With Light Rain Cloudy With Light Rain 64°F18°C 61°F16°C 90% NNW 8 mphNNW 13 kph 7.0 miles11.3 km 29.53 in1000 hPa 0.01 in6.45 mm --
01:53 01:53 Cloudy With Light Thunderstorms Cloudy With Light Thunderstorms 65°F18°C 61°F16°C 87% SW 5 mphSW 7 kph 7.0 miles11.3 km 29.53 in1000 hPa 0.09 in58.06 mm --
00:53 00:53 Cloudy With Light Thunderstorms Cloudy With Light Thunderstorms 65°F18°C 60°F16°C 84% SE 7 mphSE 11 kph 8.0 miles12.9 km 29.56 in1001 hPa 0.02 in12.90 mm --
00:28 00:28 Cloudy With Thunderstorms Cloudy With Thunderstorms 67°F19°C 58°F14°C 73% ENE 10 mphENE 17 kph 10.0 miles16.1 km 29.53 in1000 hPa 0.00 in0.00 mm --
00:16 00:16 Cloudy Cloudy 68°F20°C 59°F15°C 73% NE 12 mphNE 19 kph 10.0 miles16.1 km 29.53 in1000 hPa 0.00 in0.00 mm --
00:02 00:02 Cloudy Cloudy 68°F20°C 60°F16°C 76% ENE 13 mphENE 20 kph 10.0 miles16.1 km 29.53 in1000 hPa 0.00 in0.00 mm --